Погода в Костюковичи

Погода в Костюковичи : погода сейчас, прогноз погоды и архив. Всё, что Вы хотите узнать о погоде в Костюковичи!

Поиск расширенной информации на нашем сайте:

Другие новости

Новости СМИ2

Главная страница сайта

Новости сайта

03.07.2017

Напоминаем, что на нашем специализированном сайте Метеоцентр.Азия вы можете получить высокодетализированные автоматические прогнозы погоды по пунктам России, СНГ и мира в авиационном формате (включающие направление и скорость ветра, видимость, явления погоды, количество и форму облачности, нижнюю и верхнюю границу облачности).


Погода в Костюковичи - сегодня

Время (UTC), дата Ветер
(°,м/с) 
Видим.   Явления Облачность Т
(°С)
Тd
(°С)
f(%) Тe
(°С)
Pmin
(гПа)
dP
(гПа)
Po
(мм)
O2
(г/м3)
Тmin Tmax R s Состояние
почвы
18 12.11.18 тихо ()   35000 м    ясно 
-4.2 -7 81 -4  1040.5  764  313    -1.4       
21 12.11.18 140 (ЮВ) 35000 м    ясно 
-4.3 -7.3 80 -4  1040.9  0.4  764  314           
00 13.11.18 тихо ()   35000 м    ясно 
-5.2 -8 81 -5  1041  764  315           
03 13.11.18 тихо ()   35000 м    ясно 
-6.1 -8.8 81 -6  1040.4  -0.7  764  316           
06 13.11.18 тихо ()   35000 м    5/0 средняя, верхняя 
[Ac trans|Ci fib]
-6.6 -9.8 78 -7  1040.8  -0.4  764  317  -6.8         
09 13.11.18 150 (ЮВ) 35000 м    8/0 средняя, верхняя 
[Ac trans|Cc]
-2.5 -9.2 60 -6  1039.3  -1.1  763  311           
12 13.11.18 150 (ЮВ) 6{10}  35000 м    8/0 средняя, верхняя 
[Ac trans|Cc]
+0.2 -8.4 52 -3  1036.4  -2.7  761  307           
15 13.11.18 150 (ЮВ) 35000 м    8/0 средняя, верхняя 
[Ac trans|Ci sp]
-1.7 -8.5 60 -4  1035.5  -1  761  309           
18 13.11.18 150 (ЮВ) 35000 м    8/0 верхняя 
[Ci sp]
-2.8 -10.6 55 -6  1034.1  -1.5  759  310    +0.4       
21 13.11.18 170 (Ю) 35000 м    8/0 верхняя 
[Ci sp]
-2.8 -10.8 54 -6  1032.1  -1.9  758  310           
00 14.11.18 160 (Ю) 35000 м    6/0 верхняя 
[Ci sp]
-3 -9.9 59 -7  1029.8  -2.3  756  309           
03 14.11.18 160 (Ю) 35000 м    6/0 верхняя 
[Ci sp]
-3.3 -8.8 66 -6  1027  -2.8  754  308           
06 14.11.18 160 (Ю) 35000 м    10/10 2000 м 
[Ns]
-3.2 -8.3 68 -6  1025.5  -1.4  753  308  -3.4         
09 14.11.18 160 (Ю) 6{12}  35000 м    10/10 800 м 
[Sc]
-1.9 -7.8 64 -6  1024  -1.4  752  306           
12 14.11.18 170 (Ю) 6{10}  11000 м  слаб. снег  10/10 800 м 
[Sc]
-1.4 -5.9 71 -5  1023.1  -0.8  751  305           
15 14.11.18 150 (ЮВ) 6000 м  слаб. снег  10/10 420 м 
[Frnb|Ns]
-2.1 -3.4 91 -3  1023.3  0.1  752  306      0.7     
18 14.11.18 160 (Ю) 8000 м  в посл. час снег  10/10 270 м 
[St]
-1.8 -2.8 93 -5  1023.7  0.4  752  305    -1.2  0.7   
21 14.11.18 150 (ЮВ) 4400 м  дымка{снег}  10/10 210 м 
[St]
-1.5 -2.3 94 -2  1024.6  0.9  752  305           
00 15.11.18 150 (ЮВ) 4400 м  дымка{снег}  10/10 150 м 
[St]
-1.3 -2.1 94 -2  1025.5  0.9  753  305           
03 15.11.18 100 (В) 3600 м  дымка  10/10 150 м 
[St]
-0.8 -1.4 96 -2  1027.2  1.7  754  305      0.2   
06 15.11.18 110 (В) 9000 м  дымка{морось} [диам. гололёда 0 мм]  10/10 240 м 
[St]
-0.5 -1.3 94 -1  1029.8  2.6  756  305  -1.8    0.2  равномерный
мокрый или
старый снег
100% 
09 15.11.18 100 (В) 23000 м  {снег}  10/10 480 м 
[St]
+0.1 -1.8 87 -1  1032  2.2  758  306           
12 15.11.18 090 (В) 27000 м  {снег}  6/0 средняя 
[Ac trans]
+2.9 -0.9 76 +2  1033.2  1.4  759  303           
15 15.11.18 090 (В) 26000 м    9/0 средняя 
[Ac inh]
+0.4 -1.7 86 +1  1035.6  2.2  761  306      0.0     
18 15.11.18 080 (В) 35000 м    10/10 2000 м 
[Ns]
-0.3 -3 82 -1  1037  1.3  762  308    +3.2  0.0     
Время (UTC), дата Ветер
(°,м/с) 
Видим.   Явления Облачность Т
(°С)
Тd
(°С)
f(%) Тe
(°С)
Pmin
(гПа)
dP
(гПа)
Po
(мм)
O2
(г/м3)
Тmin Tmax R s Состояние
почвы

Для получения пояснительной информации подведите курсор к названию столбца.

ПОГОДА в Костюковичи - архив

Всё, что Вы хотите узнать о погоде в Костюковичи - удобно и подробно!

Выберите нужную дату (начиная с 1 января 2015* года) и нажмите кнопку "Найти".
Будут отображены архивные сводки погоды по пункту Костюковичи, начиная с указанной даты.


Отображать данные в формате CSV (для использования в таблицах Excel)


Внимание! Наш архив погоды предназначен исключительно для личного некоммерческого использования в познавательных целях. Если Вам необходимы официальные справки о состоянии погоды (для производственных, юридических, коммерческих и т.п. целей), обращайтесь в органы Росгидромета.

*Примечание: данная дата относится к архиву по метеостанциям СССР (Россия, СНГ, Балтия).
Архив по метеостанциям Зарубежной Европы и Азии (кроме Китая) хранится 10 дней, по другим регионам земного шара (Китай, Африка, Америка, Австралия, Океания) - 1 день.

Костюковичи - район местоположения метеостанции


Название, широта, долгота, высота метеостанции:
Костюковичи 53.3°ш. 32.1°д. 167 м над ур. моря [Беларусь]

Дополнительная информация

В oтличие oт бoльшинства пoгoдных сайтoв мы публикуем пoдрoбную метеoинфoрмацию в детальнoм прoфессиoнальнoм фoрмате.

Характеристики температуры и влажнoсти вoздуха измеряются на высoте 2 м в тени вдали oт зданий и деревьев.
Скoрoсть ветра измеряется на высoте 10 м (на урoвне рoста челoвека скoрoсть ветра ниже в 1.5-2 раза). Если метеoстанция нахoдится в гoрoде или в лесу, тo скoрoсть ветра занижена на 2-4 м/с пo сравнению с oткрытым местoм. Скoрoсть ветра над акватoриями крупных рек и oзёр, а также на вершинах хoлмoв на 2-5 м/с выше, чем в oбычных услoвиях.
Атмoсфернoе давление в разных тoчках местнoсти мoжет значительнo oтличаться oт давления на метеoстанции, в зависимoсти oт услoвий рельефа (при пoдъёме на 10 м давление пoнижается примернo на 1 мм рт.ст.).